sat.trackr.live / text

‹ back to catalog

STARLINK-32100

NORAD 59686 · 2024-086E

PAYLOAD ACTIVE UNKNOWN

§ Identity

Operator
Country
US
Launch date
2024-05-08
Launch site
AFETR
Launch vehicle
Mass (kg)
RCS (m²)

Purposes: comms

External: N2YO · Heavens-Above · Gunter

§ Orbital elements

Epoch: 2026-05-24T21:32:31.667136Z

Period
94.27 min
Inclination
43.0039°
Eccentricity
0.0001091
Mean motion
15.27573971 rev/d
Perigee alt
482.3 km
Apogee alt
483.8 km
Semi-major
6,861.2 km
B*
-2.5754e-5
RAAN
331.4092°
Arg perigee
262.4532°
Mean anomaly
97.6196°
Rev number
11,597

§ Raw data

STARLINK-321001 59686U 24086E   26144.89758874 -.00000970  00000+0 -25754-4 0  99912 59686  43.0039 331.4092 0001091 262.4532  97.6196 15.27573971115970

JSON: /api/v1/satellites/59686 · /tle

For live sub-satellite position, see the globe view (requires WebGL).

§ Visibility from observer

Set your observer location to see the next 7 days of passes ≥ 10°. The values pass through the URL so the page stays shareable.

No JS? Fill the form by hand. The geolocation button needs JavaScript.